QPF
0.00 0.00 0.00 0.00 0.00 0.00 0.00 0.00 0.00 0.00 0.00 0.00 0.00 0.00 0.00 0.00 0.00 0.00 0.00 0.00 0.00 0.00 0.00 0.00 0.00 0.00 0.00 0.00 0.00 0.00 0.00 0.00 0.00 0.00 0.00 0.00 0.00 0.00 0.00 0.00 0.00 0.00 0.01 0.01
0.00 0.00 0.00 0.00 0.00 0.00 0.00 0.00 0.00 0.00 0.00 0.00 0.00 0.00 0.00 0.00 0.00 0.00 0.00 0.00 0.00 0.00 0.00 0.00 0.00 0.00 0.00 0.00 0.00 0.00 0.00 0.00 0.00 0.00 0.00 0.00 0.00 0.00 0.00 0.00 0.00 0.00 0.00 0.01
0.00 0.00 0.00 0.00 0.00 0.00 0.00 0.00 0.00 0.00 0.00 0.00 0.00 0.00 0.00 0.00 0.00 0.00 0.00 0.00 0.00 0.00 0.00 0.00 0.00 0.00 0.00 0.00 0.00 0.00 0.00 0.00 0.00 0.00 0.00 0.00 0.00 0.00 0.00 0.00 0.00 0.00 0.00 0.00
0.00 0.00 0.00 0.00 0.00 0.00 0.00 0.00 0.00 0.00 0.00 0.00 0.00 0.00 0.00 0.00 0.00 0.00 0.00 0.00 0.00 0.00 0.00 0.00 0.00 0.00 0.00 0.00 0.00 0.00 0.00 0.00 0.00 0.00 0.00 0.00 0.00 0.00 0.00 0.00 0.00 0.00 0.00 0.00
0.00 0.00 0.00 0.00 0.00 0.00 0.00 0.00 0.00 0.00 0.00 0.00 0.00 0.00 0.00 0.00 0.00 0.00 0.00 0.00 0.00 0.00 0.00 0.00 0.00 0.00 0.00 0.00 0.00 0.00 0.00 0.00 0.00 0.00 0.00 0.00 0.00 0.00 0.00 0.00 0.00 0.00 0.00 0.00
0.00 0.00 0.00 0.00 0.00 0.00 0.00 0.00 0.00 0.00 0.00 0.00 0.00 0.00 0.00 0.00 0.00 0.00 0.00 0.00 0.00 0.00 0.00 0.00 0.00 0.00 0.00 0.00 0.00 0.00 0.00 0.00 0.00 0.00 0.00 0.00 0.00 0.00 0.00 0.00 0.00 0.00 0.00 0.00
0.00 0.00 0.00 0.00 0.00 0.00 0.00 0.00 0.00 0.00 0.00 0.00 0.00 0.00 0.00 0.00 0.00 0.00 0.00 0.00 0.00 0.00 0.00 0.00 0.00 0.00 0.00 0.00 0.00 0.00 0.00 0.00 0.00 0.00 0.00 0.00 0.00 0.00 0.00 0.00 0.00 0.00 0.00 0.00
0.00 0.00 0.00 0.00 0.00 0.00 0.00 0.00 0.00 0.00 0.00 0.00 0.00 0.00 0.00 0.00 0.00 0.00 0.00 0.00 0.00 0.00 0.00 0.00 0.00 0.00 0.00 0.00 0.00 0.00 0.00 0.00 0.00 0.00 0.00 0.00 0.00 0.00 0.00 0.00 0.00 0.00 0.00 0.00
0.00 0.00 0.00 0.00 0.00 0.00 0.00 0.00 0.00 0.00 0.00 0.00 0.00 0.00 0.00 0.00 0.00 0.00 0.00 0.00 0.00 0.00 0.00 0.00 0.00 0.00 0.00 0.00 0.00 0.00 0.00 0.00 0.00 0.00 0.00 0.00 0.00 0.00 0.00 0.00 0.00 0.00 0.00 0.00
0.00 0.00 0.00 0.00 0.00 0.00 0.00 0.00 0.00 0.00 0.00 0.00 0.00 0.00 0.00 0.00 0.00 0.00 0.00 0.00 0.00 0.00 0.00 0.00 0.00 0.00 0.00 0.00 0.00 0.00 0.00 0.00 0.00 0.00 0.00 0.00 0.00 0.00 0.00 0.00 0.00 0.00 0.00 0.00
0.00 0.00 0.00 0.00 0.00 0.00 0.00 0.00 0.00 0.00 0.00 0.00 0.00 0.00 0.00 0.00 0.00 0.00 0.00 0.00 0.00 0.00 0.00 0.00 0.00 0.00 0.00 0.00 0.00 0.00 0.00 0.00 0.00 0.00 0.00 0.00 0.00 0.00 0.00 0.00 0.00 0.00 0.00 0.00
0.00 0.00 0.00 0.00 0.00 0.00 0.00 0.00 0.00 0.00 0.00 0.00 0.00 0.00 0.00 0.00 0.00 0.00 0.00 0.00 0.00 0.00 0.00 0.00 0.00 0.00 0.00 0.00 0.00 0.00 0.00 0.00 0.00 0.00 0.00 0.00 0.00 0.00 0.00 0.00 0.00 0.00 0.00 0.00
0.01 0.01 0.01 0.00 0.00 0.00 0.00 0.00 0.00 0.00 0.00 0.00 0.00 0.00 0.00 0.00 0.00 0.00 0.00 0.00 0.00 0.00 0.00 0.00 0.00 0.00 0.00 0.00 0.00 0.00 0.00 0.00 0.00 0.00 0.00 0.00 0.00 0.00 0.00 0.00 0.00 0.00 0.00 0.00
0.06 0.07 0.03 0.01 0.00 0.00 0.00 0.00 0.00 0.00 0.00 0.00 0.00 0.00 0.00 0.00 0.00 0.00 0.00 0.00 0.00 0.00 0.00 0.00 0.00 0.00 0.00 0.00 0.00 0.00 0.00 0.00 0.00 0.00 0.00 0.00 0.00 0.00 0.00 0.00 0.00 0.00 0.00 0.00
0.13 0.18 0.07 0.02 0.00 0.00 0.00 0.00 0.00 0.00 0.00 0.00 0.00 0.00 0.00 0.00 0.00 0.00 0.00 0.00 0.00 0.00 0.00 0.00 0.00 0.00 0.00 0.00 0.00 0.00 0.00 0.00 0.00 0.00 0.00 0.00 0.00 0.00 0.00 0.00 0.00 0.00 0.00 0.00
0.14 0.18 0.11 0.05 0.01 0.01 0.01 0.01 0.00 0.00 0.00 0.00 0.00 0.00 0.00 0.00 0.00 0.00 0.00 0.00 0.00 0.00 0.00 0.00 0.00 0.00 0.00 0.00 0.00 0.00 0.00 0.00 0.00 0.00 0.00 0.00 0.00 0.00 0.00 0.00 0.00 0.00 0.00 0.00
0.15 0.19 0.19 0.13 0.03 0.04 0.06 0.01 0.00 0.00 0.00 0.00 0.00 0.00 0.00 0.00 0.00 0.00 0.00 0.00 0.00 0.00 0.00 0.00 0.00 0.00 0.00 0.00 0.00 0.00 0.00 0.00 0.00 0.00 0.00 0.00 0.00 0.00 0.00 0.00 0.00 0.00 0.00 0.00
0.14 0.16 0.23 0.22 0.13 0.15 0.06 0.00 0.00 0.00 0.00 0.00 0.00 0.00 0.00 0.00 0.00 0.00 0.00 0.00 0.00 0.00 0.00 0.00 0.00 0.00 0.00 0.00 0.00 0.00 0.00 0.00 0.00 0.00 0.00 0.00 0.00 0.00 0.00 0.00 0.00 0.00 0.00 0.00
0.06 0.11 0.20 0.27 0.24 0.13 0.02 0.00 0.00 0.00 0.00 0.00 0.00 0.00 0.00 0.00 0.00 0.00 0.00 0.00 0.00 0.00 0.00 0.00 0.00 0.00 0.00 0.00 0.00 0.00 0.00 0.00 0.00 0.00 0.00 0.00 0.00 0.00 0.00 0.00 0.00 0.00 0.00 0.00
0.01 0.04 0.13 0.25 0.28 0.16 0.02 0.00 0.00 0.00 0.01 0.00 0.00 0.00 0.00 0.00 0.00 0.00 0.00 0.00 0.00 0.00 0.00 0.00 0.00 0.00 0.00 0.00 0.00 0.00 0.00 0.00 0.00 0.00 0.00 0.00 0.00 0.00 0.00 0.00 0.00 0.00 0.00 0.01
0.02 0.04 0.10 0.16 0.19 0.11 0.02 0.00 0.00 0.01 0.01 0.00 0.00 0.00 0.00 0.00 0.00 0.00 0.00 0.00 0.00 0.00 0.00 0.00 0.00 0.00 0.00 0.00 0.00 0.00 0.00 0.00 0.00 0.00 0.00 0.00 0.00 0.00 0.00 0.00 0.00 0.01 0.01 0.03
0.05 0.08 0.09 0.11 0.16 0.10 0.01 0.01 0.01 0.02 0.01 0.01 0.00 0.00 0.00 0.00 0.00 0.00 0.00 0.00 0.00 0.00 0.00 0.00 0.00 0.00 0.00 0.00 0.00 0.00 0.00 0.00 0.00 0.00 0.00 0.00 0.00 0.00 0.00 0.01 0.02 0.03 0.04 0.07
0.03 0.05 0.07 0.10 0.11 0.06 0.04 0.03 0.03 0.03 0.03 0.02 0.02 0.01 0.01 0.00 0.00 0.00 0.00 0.00 0.00 0.00 0.00 0.00 0.00 0.00 0.00 0.00 0.00 0.00 0.00 0.00 0.00 0.00 0.00 0.00 0.00 0.01 0.01 0.02 0.03 0.05 0.07 0.09
0.02 0.03 0.04 0.06 0.05 0.04 0.03 0.03 0.03 0.04 0.05 0.05 0.05 0.04 0.03 0.02 0.01 0.01 0.00 0.00 0.00 0.00 0.00 0.00 0.00 0.00 0.00 0.00 0.00 0.00 0.00 0.00 0.00 0.00 0.01 0.01 0.01 0.01 0.02 0.02 0.03 0.05 0.07 0.09
0.05 0.05 0.06 0.05 0.03 0.02 0.02 0.02 0.03 0.03 0.04 0.04 0.04 0.04 0.03 0.03 0.02 0.02 0.01 0.01 0.01 0.00 0.00 0.00 0.00 0.00 0.00 0.00 0.00 0.00 0.00 0.00 0.00 0.01 0.01 0.01 0.01 0.02 0.02 0.03 0.03 0.04 0.04 0.05
0.03 0.04 0.06 0.06 0.04 0.05 0.04 0.03 0.03 0.03 0.04 0.04 0.04 0.04 0.04 0.04 0.03 0.03 0.02 0.01 0.01 0.01 0.00 0.00 0.00 0.00 0.00 0.00 0.00 0.00 0.00 0.00 0.01 0.01 0.01 0.02 0.02 0.02 0.02 0.03 0.03 0.04 0.04 0.04
MSLP
1018.43 1018.70 1018.98 1019.27 1019.58 1019.90 1020.21 1020.48 1020.67 1020.75 1020.67 1020.42 1020.00 1019.42 1018.72 1017.96 1017.20 1016.49 1015.89 1015.44 1015.17 1015.08 1015.16 1015.41 1015.79 1016.26 1016.80 1017.37 1017.95 1018.51 1019.03 1019.50 1019.91 1020.26 1020.56 1020.81 1021.04 1021.26 1021.50 1021.76 1022.07 1022.43 1022.85 1023.33
1018.78 1019.02 1019.26 1019.53 1019.82 1020.14 1020.44 1020.71 1020.89 1020.92 1020.79 1020.46 1019.93 1019.22 1018.39 1017.49 1016.59 1015.76 1015.07 1014.55 1014.23 1014.11 1014.18 1014.42 1014.80 1015.27 1015.81 1016.39 1016.98 1017.57 1018.12 1018.65 1019.12 1019.56 1019.95 1020.30 1020.62 1020.93 1021.23 1021.55 1021.89 1022.27 1022.68 1023.14
1019.03 1019.25 1019.47 1019.73 1020.03 1020.34 1020.66 1020.92 1021.07 1021.07 1020.86 1020.43 1019.78 1018.94 1017.96 1016.93 1015.91 1014.98 1014.22 1013.65 1013.30 1013.17 1013.24 1013.48 1013.85 1014.33 1014.86 1015.43 1016.01 1016.59 1017.16 1017.71 1018.23 1018.73 1019.19 1019.63 1020.05 1020.45 1020.85 1021.24 1021.65 1022.07 1022.50 1022.96
1019.10 1019.30 1019.52 1019.79 1020.10 1020.44 1020.77 1021.04 1021.18 1021.13 1020.84 1020.31 1019.54 1018.57 1017.46 1016.30 1015.19 1014.19 1013.37 1012.78 1012.42 1012.30 1012.39 1012.65 1013.03 1013.50 1014.02 1014.57 1015.12 1015.68 1016.24 1016.78 1017.32 1017.84 1018.35 1018.85 1019.35 1019.83 1020.31 1020.79 1021.28 1021.76 1022.24 1022.72
1018.93 1019.12 1019.35 1019.64 1019.99 1020.37 1020.74 1021.02 1021.15 1021.06 1020.71 1020.09 1019.21 1018.12 1016.91 1015.65 1014.46 1013.41 1012.57 1011.98 1011.65 1011.56 1011.68 1011.97 1012.37 1012.84 1013.35 1013.88 1014.41 1014.93 1015.45 1015.96 1016.47 1016.99 1017.50 1018.03 1018.56 1019.10 1019.64 1020.20 1020.76 1021.31 1021.85 1022.37
1018.53 1018.70 1018.95 1019.28 1019.68 1020.11 1020.52 1020.83 1020.96 1020.84 1020.44 1019.75 1018.78 1017.61 1016.31 1015.00 1013.76 1012.69 1011.86 1011.30 1011.01 1010.96 1011.13 1011.46 1011.89 1012.38 1012.89 1013.40 1013.90 1014.39 1014.86 1015.32 1015.78 1016.25 1016.73 1017.23 1017.76 1018.31 1018.89 1019.49 1020.10 1020.72 1021.32 1021.89
1017.96 1018.13 1018.39 1018.76 1019.20 1019.69 1020.13 1020.47 1020.60 1020.47 1020.03 1019.29 1018.27 1017.05 1015.71 1014.36 1013.12 1012.07 1011.27 1010.75 1010.52 1010.53 1010.75 1011.13 1011.59 1012.10 1012.62 1013.13 1013.61 1014.06 1014.48 1014.89 1015.28 1015.68 1016.10 1016.54 1017.01 1017.54 1018.10 1018.72 1019.36 1020.02 1020.67 1021.30
1017.33 1017.49 1017.77 1018.17 1018.65 1019.16 1019.64 1019.98 1020.11 1019.96 1019.50 1018.73 1017.68 1016.44 1015.10 1013.77 1012.57 1011.56 1010.81 1010.36 1010.18 1010.25 1010.52 1010.93 1011.43 1011.96 1012.49 1013.00 1013.47 1013.89 1014.27 1014.62 1014.95 1015.28 1015.61 1015.98 1016.38 1016.84 1017.37 1017.96 1018.60 1019.28 1019.96 1020.63
1016.77 1016.93 1017.21 1017.62 1018.11 1018.63 1019.10 1019.43 1019.53 1019.36 1018.87 1018.08 1017.04 1015.81 1014.51 1013.23 1012.09 1011.16 1010.48 1010.09 1009.97 1010.09 1010.39 1010.83 1011.34 1011.88 1012.41 1012.91 1013.37 1013.78 1014.14 1014.45 1014.73 1014.99 1015.26 1015.54 1015.87 1016.26 1016.73 1017.27 1017.89 1018.56 1019.25 1019.94
1016.37 1016.53 1016.81 1017.20 1017.67 1018.15 1018.58 1018.85 1018.90 1018.68 1018.16 1017.36 1016.33 1015.15 1013.92 1012.73 1011.68 1010.85 1010.26 1009.93 1009.86 1010.00 1010.31 1010.74 1011.23 1011.75 1012.27 1012.76 1013.21 1013.61 1013.95 1014.25 1014.51 1014.74 1014.96 1015.19 1015.47 1015.80 1016.21 1016.70 1017.27 1017.92 1018.60 1019.29
1016.17 1016.32 1016.58 1016.94 1017.36 1017.77 1018.10 1018.28 1018.24 1017.94 1017.38 1016.57 1015.57 1014.46 1013.32 1012.24 1011.31 1010.58 1010.08 1009.82 1009.78 1009.92 1010.21 1010.59 1011.03 1011.50 1011.97 1012.42 1012.85 1013.24 1013.59 1013.90 1014.17 1014.41 1014.63 1014.85 1015.10 1015.41 1015.78 1016.24 1016.77 1017.38 1018.03 1018.70
1016.12 1016.27 1016.51 1016.81 1017.13 1017.43 1017.64 1017.68 1017.53 1017.14 1016.52 1015.70 1014.74 1013.70 1012.67 1011.72 1010.93 1010.31 1009.91 1009.70 1009.67 1009.79 1010.02 1010.33 1010.69 1011.07 1011.46 1011.86 1012.25 1012.63 1012.99 1013.33 1013.64 1013.92 1014.19 1014.45 1014.72 1015.04 1015.41 1015.85 1016.37 1016.94 1017.56 1018.19
1016.14 1016.29 1016.48 1016.70 1016.92 1017.08 1017.13 1017.03 1016.73 1016.24 1015.56 1014.73 1013.81 1012.86 1011.95 1011.14 1010.48 1009.98 1009.67 1009.51 1009.49 1009.57 1009.73 1009.94 1010.18 1010.45 1010.74 1011.06 1011.41 1011.77 1012.14 1012.52 1012.89 1013.24 1013.59 1013.92 1014.26 1014.63 1015.04 1015.50 1016.01 1016.57 1017.16 1017.76
1016.13 1016.25 1016.38 1016.52 1016.61 1016.62 1016.52 1016.26 1015.83 1015.24 1014.51 1013.67 1012.79 1011.93 1011.14 1010.46 1009.94 1009.56 1009.33 1009.22 1009.20 1009.24 1009.32 1009.42 1009.54 1009.69 1009.87 1010.10 1010.39 1010.73 1011.11 1011.53 1011.96 1012.40 1012.84 1013.27 1013.71 1014.16 1014.64 1015.14 1015.68 1016.24 1016.81 1017.37
1016.00 1016.07 1016.13 1016.16 1016.13 1016.00 1015.75 1015.36 1014.81 1014.14 1013.37 1012.54 1011.71 1010.93 1010.26 1009.71 1009.31 1009.04 1008.89 1008.82 1008.80 1008.80 1008.81 1008.82 1008.83 1008.87 1008.95 1009.10 1009.33 1009.63 1010.01 1010.46 1010.96 1011.48 1012.01 1012.55 1013.09 1013.63 1014.18 1014.75 1015.32 1015.90 1016.47 1017.02
1015.72 1015.71 1015.68 1015.61 1015.45 1015.21 1014.84 1014.34 1013.71 1012.99 1012.20 1011.39 1010.62 1009.93 1009.36 1008.93 1008.64 1008.46 1008.38 1008.35 1008.34 1008.32 1008.28 1008.22 1008.16 1008.11 1008.11 1008.19 1008.36 1008.63 1009.01 1009.47 1010.01 1010.58 1011.19 1011.81 1012.44 1013.06 1013.69 1014.32 1014.94 1015.55 1016.14 1016.69
1015.31 1015.20 1015.07 1014.89 1014.64 1014.29 1013.84 1013.27 1012.61 1011.87 1011.09 1010.33 1009.62 1009.01 1008.53 1008.19 1007.99 1007.88 1007.86 1007.87 1007.87 1007.85 1007.80 1007.71 1007.60 1007.51 1007.47 1007.50 1007.63 1007.88 1008.24 1008.69 1009.24 1009.84 1010.49 1011.16 1011.84 1012.52 1013.21 1013.88 1014.55 1015.20 1015.81 1016.39
1014.84 1014.62 1014.37 1014.09 1013.76 1013.35 1012.86 1012.27 1011.61 1010.89 1010.16 1009.45 1008.81 1008.28 1007.87 1007.60 1007.45 1007.41 1007.42 1007.47 1007.50 1007.50 1007.46 1007.37 1007.27 1007.17 1007.11 1007.13 1007.24 1007.46 1007.79 1008.23 1008.76 1009.35 1010.00 1010.67 1011.37 1012.07 1012.78 1013.49 1014.18 1014.86 1015.51 1016.11
1014.39 1014.05 1013.70 1013.34 1012.95 1012.51 1012.01 1011.44 1010.82 1010.16 1009.49 1008.85 1008.29 1007.81 1007.46 1007.24 1007.13 1007.12 1007.16 1007.23 1007.30 1007.33 1007.32 1007.27 1007.20 1007.13 1007.09 1007.11 1007.21 1007.41 1007.71 1008.11 1008.59 1009.14 1009.75 1010.39 1011.06 1011.75 1012.45 1013.16 1013.87 1014.57 1015.24 1015.88
1014.02 1013.57 1013.13 1012.71 1012.29 1011.85 1011.37 1010.85 1010.29 1009.71 1009.13 1008.57 1008.07 1007.65 1007.35 1007.16 1007.07 1007.08 1007.14 1007.23 1007.33 1007.40 1007.43 1007.43 1007.41 1007.38 1007.37 1007.41 1007.51 1007.68 1007.95 1008.29 1008.71 1009.20 1009.73 1010.32 1010.94 1011.58 1012.25 1012.94 1013.64 1014.34 1015.03 1015.69
1013.71 1013.17 1012.68 1012.23 1011.80 1011.38 1010.95 1010.50 1010.03 1009.53 1009.04 1008.56 1008.13 1007.78 1007.51 1007.35 1007.28 1007.30 1007.37 1007.49 1007.61 1007.72 1007.80 1007.85 1007.88 1007.89 1007.91 1007.96 1008.05 1008.19 1008.41 1008.69 1009.03 1009.44 1009.90 1010.41 1010.96 1011.55 1012.18 1012.83 1013.50 1014.18 1014.87 1015.54
1013.42 1012.84 1012.31 1011.85 1011.45 1011.07 1010.70 1010.33 1009.94 1009.54 1009.14 1008.75 1008.40 1008.10 1007.88 1007.75 1007.71 1007.75 1007.85 1007.98 1008.13 1008.28 1008.40 1008.49 1008.55 1008.59 1008.63 1008.67 1008.73 1008.84 1009.00 1009.21 1009.47 1009.80 1010.18 1010.61 1011.10 1011.63 1012.20 1012.81 1013.45 1014.10 1014.76 1015.41
1013.06 1012.47 1011.96 1011.52 1011.14 1010.81 1010.51 1010.21 1009.91 1009.61 1009.29 1009.00 1008.73 1008.51 1008.35 1008.28 1008.29 1008.37 1008.51 1008.68 1008.87 1009.04 1009.20 1009.31 1009.39 1009.43 1009.45 1009.47 1009.49 1009.54 1009.62 1009.76 1009.95 1010.20 1010.51 1010.88 1011.31 1011.79 1012.32 1012.88 1013.47 1014.08 1014.70 1015.30
1012.57 1012.01 1011.53 1011.13 1010.81 1010.53 1010.28 1010.05 1009.83 1009.60 1009.38 1009.17 1009.00 1008.87 1008.82 1008.83 1008.92 1009.08 1009.28 1009.52 1009.75 1009.97 1010.15 1010.27 1010.35 1010.37 1010.35 1010.31 1010.27 1010.24 1010.25 1010.31 1010.42 1010.61 1010.86 1011.19 1011.57 1012.01 1012.50 1013.03 1013.57 1014.13 1014.69 1015.23
1011.95 1011.45 1011.03 1010.68 1010.40 1010.16 1009.96 1009.78 1009.61 1009.45 1009.31 1009.20 1009.13 1009.12 1009.19 1009.33 1009.54 1009.81 1010.12 1010.44 1010.74 1011.01 1011.21 1011.35 1011.40 1011.38 1011.31 1011.19 1011.07 1010.96 1010.88 1010.86 1010.91 1011.04 1011.25 1011.53 1011.89 1012.31 1012.77 1013.26 1013.76 1014.26 1014.75 1015.22
1011.30 1010.88 1010.52 1010.21 1009.96 1009.75 1009.57 1009.41 1009.27 1009.16 1009.09 1009.07 1009.11 1009.24 1009.45 1009.74 1010.11 1010.53 1010.97 1011.41 1011.80 1012.13 1012.37 1012.51 1012.54 1012.47 1012.33 1012.14 1011.93 1011.73 1011.57 1011.47 1011.46 1011.54 1011.72 1011.97 1012.31 1012.70 1013.14 1013.60 1014.06 1014.50 1014.92 1015.31
Thickness
5655 5660 5663 5670 5673 5668 5668 5667 5671 5676 5671 5671 5680 5692 5705 5712 5710 5712 5719 5724 5725 5726 5729 5726 5719 5711 5703 5697 5692 5688 5684 5679 5673 5669 5665 5661 5658 5654 5651 5649 5646 5643 5639 5635
5644 5650 5663 5657 5652 5653 5656 5659 5665 5667 5659 5661 5672 5685 5702 5708 5713 5719 5723 5728 5730 5731 5731 5725 5717 5711 5705 5700 5695 5690 5685 5680 5675 5671 5666 5662 5658 5652 5648 5643 5640 5637 5634 5630
5645 5649 5647 5644 5641 5643 5648 5654 5661 5659 5653 5651 5654 5681 5701 5710 5710 5713 5718 5724 5729 5731 5733 5731 5721 5712 5706 5701 5697 5691 5686 5680 5674 5668 5662 5655 5649 5645 5641 5638 5635 5631 5628 5625
5636 5635 5631 5635 5640 5643 5644 5648 5648 5644 5645 5657 5648 5667 5704 5705 5707 5713 5720 5725 5730 5733 5732 5729 5723 5714 5707 5702 5695 5689 5683 5677 5671 5665 5660 5657 5654 5652 5647 5639 5632 5626 5622 5618
5629 5624 5628 5631 5638 5637 5638 5630 5630 5631 5635 5641 5643 5642 5687 5695 5700 5715 5723 5729 5735 5736 5732 5728 5721 5714 5707 5698 5691 5685 5679 5674 5668 5662 5658 5655 5653 5650 5643 5634 5626 5620 5614 5610
5615 5615 5621 5628 5622 5623 5617 5618 5613 5615 5622 5631 5656 5644 5676 5696 5711 5722 5728 5729 5729 5729 5726 5721 5716 5708 5702 5694 5686 5679 5674 5669 5663 5658 5655 5652 5649 5644 5636 5629 5621 5614 5607 5602
5602 5604 5606 5611 5609 5605 5614 5616 5608 5607 5608 5636 5642 5644 5680 5699 5709 5716 5722 5724 5722 5718 5715 5712 5708 5702 5695 5687 5680 5673 5668 5664 5658 5653 5649 5646 5642 5637 5632 5626 5619 5610 5602 5596
5598 5603 5603 5604 5615 5609 5610 5619 5610 5606 5611 5637 5608 5633 5683 5684 5689 5695 5701 5707 5709 5706 5703 5701 5699 5695 5689 5681 5673 5667 5662 5657 5651 5647 5643 5638 5635 5630 5625 5620 5614 5607 5601 5595
5596 5601 5598 5599 5602 5609 5597 5604 5619 5604 5591 5590 5630 5654 5667 5669 5677 5687 5695 5699 5702 5701 5696 5694 5691 5687 5681 5673 5666 5661 5655 5649 5644 5639 5634 5631 5627 5622 5618 5612 5606 5601 5596 5589
5588 5583 5581 5578 5584 5587 5596 5599 5584 5588 5580 5592 5624 5644 5665 5667 5683 5693 5692 5692 5693 5690 5686 5683 5680 5675 5670 5664 5658 5652 5647 5642 5637 5631 5627 5623 5619 5614 5609 5603 5598 5593 5587 5579
5575 5571 5566 5563 5576 5586 5579 5580 5588 5589 5592 5591 5603 5644 5674 5671 5675 5678 5680 5678 5677 5675 5673 5671 5666 5661 5656 5651 5646 5642 5638 5634 5629 5624 5619 5614 5610 5605 5600 5595 5590 5584 5577 5570
5560 5559 5561 5568 5573 5576 5582 5589 5585 5576 5571 5577 5593 5638 5665 5661 5659 5658 5659 5659 5658 5657 5657 5655 5650 5645 5641 5638 5635 5632 5630 5626 5622 5617 5611 5607 5602 5596 5592 5587 5581 5574 5568 5561
5545 5541 5539 5551 5552 5551 5559 5571 5577 5579 5572 5569 5577 5623 5645 5641 5642 5643 5644 5645 5643 5641 5642 5639 5636 5633 5630 5627 5624 5623 5621 5619 5614 5608 5603 5598 5594 5589 5585 5579 5572 5565 5559 5551
5533 5531 5539 5558 5570 5557 5552 5559 5562 5559 5557 5570 5587 5619 5637 5631 5631 5635 5635 5635 5634 5632 5630 5628 5626 5624 5620 5617 5615 5614 5612 5609 5605 5600 5595 5591 5588 5583 5577 5571 5564 5557 5550 5542
5515 5515 5527 5542 5549 5542 5544 5549 5551 5552 5564 5568 5591 5605 5634 5629 5623 5624 5624 5624 5622 5621 5621 5621 5620 5619 5616 5611 5608 5606 5604 5601 5597 5592 5588 5586 5581 5575 5568 5561 5554 5547 5539 5534
5505 5504 5509 5518 5532 5529 5526 5536 5544 5548 5556 5563 5575 5597 5632 5620 5615 5613 5612 5610 5610 5613 5615 5615 5613 5611 5609 5606 5604 5601 5597 5594 5589 5585 5583 5578 5571 5564 5558 5551 5543 5536 5529 5522
5495 5493 5496 5511 5521 5509 5517 5545 5547 5548 5554 5555 5562 5594 5612 5601 5600 5600 5600 5601 5603 5606 5607 5607 5608 5607 5605 5602 5598 5595 5591 5586 5579 5576 5572 5565 5560 5553 5546 5539 5532 5526 5519 5511
5479 5477 5481 5493 5495 5501 5538 5562 5556 5551 5554 5555 5559 5580 5592 5591 5592 5592 5593 5592 5594 5596 5597 5598 5597 5597 5596 5593 5589 5585 5580 5574 5568 5564 5559 5554 5548 5541 5534 5527 5521 5515 5508 5501
5477 5471 5468 5476 5487 5503 5532 5546 5545 5541 5548 5560 5557 5566 5575 5577 5569 5581 5587 5581 5583 5585 5583 5582 5580 5579 5579 5578 5575 5570 5565 5561 5557 5553 5548 5543 5537 5530 5523 5517 5511 5503 5496 5489
5469 5469 5460 5465 5473 5489 5529 5538 5533 5526 5528 5551 5547 5551 5558 5556 5548 5576 5576 5566 5565 5562 5559 5558 5557 5557 5559 5559 5556 5553 5551 5547 5545 5541 5537 5530 5523 5516 5510 5504 5496 5489 5482 5475
5448 5448 5449 5456 5463 5481 5509 5511 5508 5504 5519 5520 5521 5527 5533 5537 5543 5551 5543 5539 5536 5535 5534 5534 5535 5536 5537 5536 5536 5536 5535 5532 5530 5524 5519 5514 5507 5501 5495 5487 5480 5473 5465 5458
5441 5442 5446 5451 5453 5471 5485 5482 5489 5493 5491 5495 5499 5504 5506 5514 5518 5519 5519 5516 5512 5512 5511 5510 5512 5513 5514 5514 5516 5517 5515 5512 5508 5504 5500 5494 5489 5483 5476 5469 5462 5455 5449 5442
5426 5434 5439 5439 5449 5457 5458 5460 5464 5462 5466 5472 5475 5479 5482 5486 5493 5496 5495 5492 5490 5488 5486 5485 5487 5488 5489 5490 5493 5494 5492 5489 5486 5483 5478 5473 5468 5463 5457 5451 5444 5437 5431 5426
5409 5408 5411 5415 5431 5436 5438 5440 5440 5440 5443 5450 5453 5457 5461 5466 5469 5468 5467 5466 5465 5462 5461 5461 5463 5465 5464 5464 5466 5468 5468 5467 5465 5461 5456 5452 5448 5443 5437 5432 5426 5421 5415 5410
5384 5385 5388 5393 5407 5413 5419 5419 5419 5421 5424 5428 5432 5434 5440 5444 5445 5445 5444 5443 5441 5439 5438 5439 5440 5440 5438 5438 5440 5441 5443 5445 5443 5439 5435 5431 5428 5423 5417 5412 5407 5403 5399 5394
5377 5378 5378 5386 5395 5391 5399 5401 5400 5402 5408 5411 5413 5416 5419 5421 5425 5424 5422 5420 5418 5417 5416 5416 5415 5414 5412 5413 5414 5415 5419 5422 5422 5418 5414 5411 5407 5402 5397 5391 5386 5381 5378 5373